sat.trackr.live / text

‹ back to catalog

STARLINK-32781

NORAD 62848 · 2025-019V

PAYLOAD ACTIVE UNKNOWN

§ Identity

Operator
Country
US
Launch date
2025-01-27
Launch site
AFETR
Launch vehicle
Mass (kg)
RCS (m²)

Purposes: comms

External: N2YO · Heavens-Above · Gunter

§ Orbital elements

Epoch: 2026-05-25T00:21:15.554304Z

Period
94.27 min
Inclination
43.0041°
Eccentricity
0.0001001
Mean motion
15.27595073 rev/d
Perigee alt
482.3 km
Apogee alt
483.7 km
Semi-major
6,861.1 km
B*
5.3315e-4
RAAN
17.9615°
Arg perigee
255.1220°
Mean anomaly
104.9521°
Rev number
7,392

§ Raw data

STARLINK-327811 62848U 25019V   26145.01476336  .00014444  00000+0  53315-3 0  99992 62848  43.0041  17.9615 0001001 255.1220 104.9521 15.27595073 73927

JSON: /api/v1/satellites/62848 · /tle

For live sub-satellite position, see the globe view (requires WebGL).

§ Visibility from observer

Set your observer location to see the next 7 days of passes ≥ 10°. The values pass through the URL so the page stays shareable.

No JS? Fill the form by hand. The geolocation button needs JavaScript.